North Canton, OH

4:35 AM EST on February 23, 2017 (GMT -0500)
Akron-Canton Regional

Weather History for KCAK - July, 2012

Change the Weather History Date:

Tuesday, July 24, 2012

  Actual Average Record
Temperature  
Mean Temperature 75 °F 72 °F  
Max Temperature 87 °F 82 °F 97 °F (1934)
Min Temperature 63 °F 62 °F 44 °F (1904)
Degree Days  
Heating Degree Days 0 0  
Month to date heating degree days 0 0  
Since 1 June heating degree days 26 49  
Since 1 July heating degree days 0 0  
Cooling Degree Days 10 7  
Month to date cooling degree days 320 168  
Year to date cooling degree days 670 345  
Since 1 June cooling degree days 524 303  
Growing Degree Days 26 (Base 50)    
Moisture  
Dew Point 64 °F    
Average Humidity 63    
Maximum Humidity 74    
Minimum Humidity 51    
Precipitation  
Precipitation T in 0.13 in 1.22 in (1956)
Month to date precipitation 2.55 3.18  
Year to date precipitation 16.58 22.74  
Snow  
Snow 0.00 in 0.00 in - ()
Month to date snowfall 0.0 0.0  
Since 1 June snowfall 0.0 0.0  
Since 1 July snowfall 0.0 0.0  
Snow Depth 0.00 in    
Sea Level Pressure  
Sea Level Pressure 29.87 in    
Wind  
Wind Speed 10 mph (NW)    
Max Wind Speed 26 mph    
Max Gust Speed 33 mph    
Visibility 7 miles    
Events      
T = Trace of Precipitation, MM = Missing Value Source: NWS Daily Summary

Daily Weather History Graph

Daily Weather History Graph

Search for Another Location

Airport or City:

Trip Planner

Search our weather history database for the weather conditions in past years. The results will help you decide how hot, cold, wet, or windy it might be!

Date:

Astronomy

Jul. 24, 2012 Rise Set
Actual Time 6:14 AM EDT 8:49 PM EDT
Civil Twilight 5:43 AM EDT 9:20 PM EDT
Nautical Twilight 5:03 AM EDT 9:59 PM EDT
Astronomical Twilight 4:19 AM EDT 10:44 PM EDT
Moon 12:14 PM EDT (7/24) 11:33 PM EDT (7/24)
Length of Visible Light 15h 37m
Length of Day
14h 34m
Waxing Crescent, 31% of the Moon is Illuminated
Jul 24
Waxing Crescent
Jul 26
First Quarter
Aug 1
Full
Aug 9
Last Quarter
Aug 17
New

Hourly Weather History & Observations

Time (EDT) Temp. Heat Index Dew Point Humidity Pressure Visibility Wind Dir Wind Speed Gust Speed Precip Events Conditions
12:51 AM 80.1 °F 82.9 °F 69.1 °F 69% 29.88 in 8.0 mi WSW 6.9 mph - N/A   Clear
1:51 AM 79.0 °F - 69.1 °F 72% 29.88 in 8.0 mi WSW 6.9 mph - N/A   Clear
2:51 AM 79.0 °F - 68.0 °F 69% 29.86 in 8.0 mi WSW 8.1 mph - N/A   Clear
3:51 AM 78.1 °F - 68.0 °F 71% 29.86 in 8.0 mi WSW 5.8 mph - N/A   Partly Cloudy
4:51 AM 77.0 °F - 68.0 °F 74% 29.83 in 8.0 mi SW 3.5 mph - N/A   Scattered Clouds
5:51 AM 77.0 °F - 66.9 °F 71% 29.84 in 8.0 mi West 5.8 mph - N/A   Mostly Cloudy
6:51 AM 77.0 °F - 66.9 °F 71% 29.86 in 7.0 mi West 6.9 mph - N/A   Mostly Cloudy
7:51 AM 77.0 °F - 68.0 °F 74% 29.86 in 7.0 mi WSW 3.5 mph - 0.00 in   Mostly Cloudy
8:51 AM 78.1 °F - 69.1 °F 74% 29.86 in 7.0 mi West 8.1 mph - 0.00 in   Overcast
9:51 AM 82.0 °F 85.9 °F 70.0 °F 67% 29.86 in 7.0 mi WNW 11.5 mph - N/A   Mostly Cloudy
10:51 AM 82.9 °F 87.0 °F 70.0 °F 65% 29.87 in 7.0 mi WNW 13.8 mph 21.9 mph N/A   Mostly Cloudy
11:51 AM 84.2 °F 88.4 °F 69.8 °F 62% 29.90 in 7.0 mi WNW 12.7 mph 27.6 mph N/A   Overcast
12:51 PM 82.9 °F 85.4 °F 66.9 °F 58% 29.88 in 8.0 mi NW 16.1 mph 27.6 mph N/A   Mostly Cloudy
1:51 PM 84.9 °F 86.6 °F 64.9 °F 51% 29.87 in 8.0 mi WNW 16.1 mph 25.3 mph N/A   Mostly Cloudy
2:51 PM 84.0 °F 86.3 °F 66.0 °F 55% 29.84 in 8.0 mi NNW 13.8 mph 27.6 mph N/A   Mostly Cloudy
3:51 PM 82.0 °F 83.8 °F 64.9 °F 56% 29.83 in 6.0 mi North 12.7 mph 23.0 mph N/A   Haze
4:51 PM 82.0 °F 83.4 °F 64.0 °F 54% 29.83 in 5.0 mi North 12.7 mph 21.9 mph N/A   Haze
5:51 PM 80.1 °F 81.2 °F 62.1 °F 54% 29.85 in 5.0 mi North 15.0 mph 19.6 mph N/A   Haze
6:51 PM 79.0 °F - 60.1 °F 52% 29.88 in 6.0 mi NNW 12.7 mph - N/A   Haze
7:51 PM 75.9 °F - 60.1 °F 58% 29.89 in 6.0 mi North 11.5 mph - N/A   Haze
8:51 PM 72.0 °F - 57.0 °F 59% 29.92 in 6.0 mi North 11.5 mph - N/A   Haze
9:51 PM 70.0 °F - 50.0 °F 49% 29.94 in 6.0 mi North 11.5 mph - N/A   Haze
10:51 PM 66.9 °F - 51.1 °F 57% 29.96 in 8.0 mi North 8.1 mph - N/A   Partly Cloudy
11:51 PM 64.0 °F - 50.0 °F 60% 29.95 in 10.0 mi North 6.9 mph - N/A   Clear